Location: *
(57.8420°S, 159.8600°W)
Time: 03:48:30
(UTC+00:00)

Cosmos 2360 Rocket - Pass Details

Date: 18 May 2021
Orbit: 835 x 844 km, 71.0° (Epoch: 20 June)

Event Time Altitude Azimuth Distance (km) Brightness Sun altitude
Rises 06:33:20 0° 254° (WSW) 3,419 6.5 -32.0°
Reaches altitude 10° 06:36:21 10° 238° (WSW) 2,488 5.4 -32.4°
Maximum altitude 06:40:47 23° 187° (S) 1,768 4.0 -33.0°
Enters shadow 06:41:05 22° 183° (S) 1,772 4.0 -33.0°
